Time,TemperatureF,DewpointF,PressureIn,WindDirection,WindDirectionDegrees,WindSpeedMPH,WindSpeedGustMPH,Humidity,HourlyPrecipIn,Conditions,Clouds,dailyrainin,SoftwareType,DateUTC
2013-09-14 00:02:00,57.2,48.2,30.22,SE,139,0.0,-999.9,72,-99.99,,,-99.99,,2013-09-14 04:02:00,
2013-09-14 00:08:00,57.2,48.2,30.22,SE,139,0.0,-999.9,72,-99.99,,,-99.99,,2013-09-14 04:08:00,
2013-09-14 00:14:00,57.2,48.2,30.22,ENE,74,0.0,-999.9,72,-99.99,,,-99.99,,2013-09-14 04:14:00,
2013-09-14 00:20:00,57.2,48.2,30.22,ENE,74,0.0,-999.9,72,-99.99,,,-99.99,,2013-09-14 04:20:00,
2013-09-14 00:26:00,57.2,48.2,30.23,NE,34,3.5,-999.9,72,-99.99,,,-99.99,,2013-09-14 04:26:00,
2013-09-14 00:32:00,57.2,48.2,30.23,North,3,3.5,-999.9,72,-99.99,,,-99.99,,2013-09-14 04:32:00,
2013-09-14 00:38:00,57.2,48.2,30.23,North,3,3.5,-999.9,72,-99.99,,,-99.99,,2013-09-14 04:38:00,
2013-09-14 00:44:00,55.4,46.4,30.23,NNE,17,2.3,-999.9,72,-99.99,,,-99.99,,2013-09-14 04:44:00,
2013-09-14 00:50:00,55.4,46.4,30.23,NNE,17,2.3,-999.9,72,-99.99,,,-99.99,,2013-09-14 04:50:00,
2013-09-14 00:56:00,55.4,46.4,30.23,NNE,30,3.5,-999.9,72,-99.99,,,-99.99,,2013-09-14 04:56:00,
2013-09-14 01:22:00,55.4,46.4,30.23,NE,38,2.3,-999.9,72,-99.99,,,-99.99,,2013-09-14 05:22:00,
2013-09-14 01:28:00,55.4,46.4,30.23,NE,38,2.3,-999.9,72,-99.99,,,-99.99,,2013-09-14 05:28:00,
2013-09-14 01:34:00,55.4,46.4,30.23,NE,50,1.2,-999.9,72,-99.99,,,-99.99,,2013-09-14 05:34:00,
2013-09-14 01:40:00,55.4,46.4,30.23,NE,50,1.2,-999.9,72,-99.99,,,-99.99,,2013-09-14 05:40:00,
2013-09-14 02:02:00,55.4,46.4,30.24,NNW,346,2.3,-999.9,72,-99.99,,,-99.99,,2013-09-14 06:02:00,
2013-09-14 02:08:00,55.4,46.4,30.24,NNW,346,2.3,-999.9,72,-99.99,,,-99.99,,2013-09-14 06:08:00,
2013-09-14 02:14:00,55.4,46.4,30.24,NNE,12,3.5,-999.9,72,-99.99,,,-99.99,,2013-09-14 06:14:00,
2013-09-14 02:20:00,55.4,46.4,30.24,NNE,12,3.5,-999.9,72,-99.99,,,-99.99,,2013-09-14 06:20:00,
2013-09-14 02:26:00,55.4,46.4,30.24,South,174,1.2,-999.9,72,-99.99,,,-99.99,,2013-09-14 06:26:00,
2013-09-14 02:32:00,55.4,46.4,30.24,NW,326,1.2,-999.9,72,-99.99,,,-99.99,,2013-09-14 06:32:00,
2013-09-14 02:38:00,55.4,46.4,30.24,NW,326,1.2,-999.9,72,-99.99,,,-99.99,,2013-09-14 06:38:00,
2013-09-14 02:44:00,55.4,46.4,30.25,North,0,0.0,-999.9,72,-99.99,,,-99.99,,2013-09-14 06:44:00,
2013-09-14 02:50:00,55.4,46.4,30.25,North,0,0.0,-999.9,72,-99.99,,,-99.99,,2013-09-14 06:50:00,
2013-09-14 02:56:00,53.6,46.4,30.25,NNE,28,3.5,-999.9,77,-99.99,,,-99.99,,2013-09-14 06:56:00,
2013-09-14 03:02:00,53.6,46.4,30.25,North,8,1.2,-999.9,77,-99.99,,,-99.99,,2013-09-14 07:02:00,
2013-09-14 03:08:00,53.6,46.4,30.25,North,8,1.2,-999.9,77,-99.99,,,-99.99,,2013-09-14 07:08:00,
2013-09-14 03:14:00,53.6,46.4,30.25,NNE,12,1.2,-999.9,77,-99.99,,,-99.99,,2013-09-14 07:14:00,
2013-09-14 03:20:00,53.6,46.4,30.25,NNE,12,1.2,-999.9,77,-99.99,,,-99.99,,2013-09-14 07:20:00,
2013-09-14 03:26:00,53.6,46.4,30.25,North,0,0.0,-999.9,77,-99.99,,,-99.99,,2013-09-14 07:26:00,
2013-09-14 03:32:00,53.6,46.4,30.25,North,0,0.0,-999.9,77,-99.99,,,-99.99,,2013-09-14 07:32:00,
2013-09-14 03:38:00,53.6,46.4,30.25,North,0,0.0,-999.9,77,-99.99,,,-99.99,,2013-09-14 07:38:00,
2013-09-14 03:44:00,53.6,46.4,30.25,North,0,0.0,-999.9,77,-99.99,,,-99.99,,2013-09-14 07:44:00,
2013-09-14 03:50:00,53.6,46.4,30.25,North,0,0.0,-999.9,77,-99.99,,,-99.99,,2013-09-14 07:50:00,
2013-09-14 03:56:00,53.6,46.4,30.26,NNW,332,2.3,-999.9,77,-99.99,,,-99.99,,2013-09-14 07:56:00,
2013-09-14 04:02:00,53.6,44.6,30.26,WNW,296,3.5,-999.9,72,-99.99,,,-99.99,,2013-09-14 08:02:00,
2013-09-14 04:08:00,53.6,44.6,30.26,WNW,296,3.5,-999.9,72,-99.99,,,-99.99,,2013-09-14 08:08:00,
2013-09-14 04:14:00,53.6,44.6,30.26,North,358,4.6,-999.9,72,-99.99,,,-99.99,,2013-09-14 08:14:00,
2013-09-14 04:20:00,53.6,44.6,30.26,North,358,4.6,-999.9,72,-99.99,,,-99.99,,2013-09-14 08:20:00,
2013-09-14 04:26:00,53.6,44.6,30.26,North,4,3.5,-999.9,72,-99.99,,,-99.99,,2013-09-14 08:26:00,
2013-09-14 04:32:00,53.6,44.6,30.26,North,11,6.9,-999.9,72,-99.99,,,-99.99,,2013-09-14 08:32:00,
2013-09-14 04:38:00,53.6,44.6,30.26,North,11,6.9,-999.9,72,-99.99,,,-99.99,,2013-09-14 08:38:00,
2013-09-14 04:44:00,53.6,44.6,30.26,North,359,4.6,-999.9,72,-99.99,,,-99.99,,2013-09-14 08:44:00,
2013-09-14 04:50:00,53.6,44.6,30.26,North,359,4.6,-999.9,72,-99.99,,,-99.99,,2013-09-14 08:50:00,
2013-09-14 04:56:00,53.6,44.6,30.27,North,5,4.6,-999.9,72,-99.99,,,-99.99,,2013-09-14 08:56:00,
2013-09-14 05:02:00,53.6,44.6,30.27,NNE,21,8.1,-999.9,72,-99.99,,,-99.99,,2013-09-14 09:02:00,
2013-09-14 05:08:00,53.6,44.6,30.27,NNE,21,8.1,-999.9,72,-99.99,,,-99.99,,2013-09-14 09:08:00,
2013-09-14 05:14:00,53.6,44.6,30.27,NE,36,2.3,-999.9,72,-99.99,,,-99.99,,2013-09-14 09:14:00,
2013-09-14 05:20:00,53.6,44.6,30.27,NE,36,2.3,-999.9,72,-99.99,,,-99.99,,2013-09-14 09:20:00,
2013-09-14 05:26:00,53.6,46.4,30.28,NNW,340,2.3,-999.9,77,-99.99,,,-99.99,,2013-09-14 09:26:00,
2013-09-14 05:32:00,53.6,46.4,30.28,West,263,0.0,-999.9,77,-99.99,,,-99.99,,2013-09-14 09:32:00,
2013-09-14 05:38:00,53.6,46.4,30.28,West,263,0.0,-999.9,77,-99.99,,,-99.99,,2013-09-14 09:38:00,
2013-09-14 05:44:00,53.6,46.4,30.28,North,0,0.0,-999.9,77,-99.99,,,-99.99,,2013-09-14 09:44:00,
2013-09-14 05:50:00,53.6,46.4,30.28,North,0,0.0,-999.9,77,-99.99,,,-99.99,,2013-09-14 09:50:00,
2013-09-14 05:56:00,51.8,44.6,30.29,North,0,0.0,-999.9,76,-99.99,,,-99.99,,2013-09-14 09:56:00,
2013-09-14 06:02:00,51.8,44.6,30.29,North,0,0.0,-999.9,76,-99.99,,,-99.99,,2013-09-14 10:02:00,
2013-09-14 06:08:00,51.8,44.6,30.29,North,0,0.0,-999.9,76,-99.99,,,-99.99,,2013-09-14 10:08:00,
2013-09-14 06:14:00,51.8,44.6,30.29,North,351,4.6,-999.9,76,-99.99,,,-99.99,,2013-09-14 10:14:00,
2013-09-14 06:20:00,51.8,44.6,30.29,North,351,4.6,-999.9,76,-99.99,,,-99.99,,2013-09-14 10:20:00,
2013-09-14 06:26:00,51.8,44.6,30.29,North,0,0.0,-999.9,76,-99.99,,,-99.99,,2013-09-14 10:26:00,
2013-09-14 06:32:00,51.8,44.6,30.29,NW,317,2.3,-999.9,76,-99.99,,,-99.99,,2013-09-14 10:32:00,
2013-09-14 06:38:00,51.8,44.6,30.29,NW,317,2.3,-999.9,76,-99.99,,,-99.99,,2013-09-14 10:38:00,
2013-09-14 06:44:00,51.8,44.6,30.30,NNW,342,2.3,-999.9,76,-99.99,,,-99.99,,2013-09-14 10:44:00,
2013-09-14 06:50:00,51.8,44.6,30.30,NNW,342,2.3,-999.9,76,-99.99,,,-99.99,,2013-09-14 10:50:00,
2013-09-14 06:56:00,51.8,44.6,30.31,NNW,328,1.2,-999.9,76,-99.99,,,-99.99,,2013-09-14 10:56:00,
2013-09-14 07:02:00,53.6,44.6,30.31,NNE,13,5.8,-999.9,72,-99.99,,,-99.99,,2013-09-14 11:02:00,
2013-09-14 07:08:00,53.6,44.6,30.31,NNE,13,5.8,-999.9,72,-99.99,,,-99.99,,2013-09-14 11:08:00,
2013-09-14 07:14:00,53.6,44.6,30.32,NNE,12,5.8,-999.9,72,-99.99,,,-99.99,,2013-09-14 11:14:00,
2013-09-14 07:20:00,53.6,44.6,30.32,NNE,12,5.8,-999.9,72,-99.99,,,-99.99,,2013-09-14 11:20:00,
2013-09-14 07:26:00,53.6,42.8,30.32,NNE,15,3.5,-999.9,67,-99.99,,,-99.99,,2013-09-14 11:26:00,
2013-09-14 07:32:00,53.6,42.8,30.32,NNW,338,4.6,-999.9,67,-99.99,,,-99.99,,2013-09-14 11:32:00,
2013-09-14 07:38:00,53.6,42.8,30.32,NNW,338,4.6,-999.9,67,-99.99,,,-99.99,,2013-09-14 11:38:00,
2013-09-14 07:44:00,55.4,44.6,30.32,NE,40,3.5,-999.9,67,-99.99,,,-99.99,,2013-09-14 11:44:00,
2013-09-14 07:50:00,55.4,44.6,30.32,NE,40,3.5,-999.9,67,-99.99,,,-99.99,,2013-09-14 11:50:00,
2013-09-14 07:56:00,55.4,42.8,30.32,NNE,19,6.9,-999.9,63,-99.99,,,-99.99,,2013-09-14 11:56:00,
2013-09-14 08:02:00,55.4,42.8,30.32,NE,35,3.5,-999.9,63,-99.99,,,-99.99,,2013-09-14 12:02:00,
2013-09-14 08:08:00,55.4,42.8,30.32,NE,35,3.5,-999.9,63,-99.99,,,-99.99,,2013-09-14 12:08:00,
2013-09-14 08:14:00,57.2,44.6,30.31,NNE,14,9.2,-999.9,63,-99.99,,,-99.99,,2013-09-14 12:14:00,
2013-09-14 08:20:00,57.2,44.6,30.31,NNE,14,9.2,-999.9,63,-99.99,,,-99.99,,2013-09-14 12:20:00,
2013-09-14 08:26:00,57.2,44.6,30.32,North,9,5.8,-999.9,63,-99.99,,,-99.99,,2013-09-14 12:26:00,
2013-09-14 08:32:00,57.2,44.6,30.31,NE,35,6.9,-999.9,63,-99.99,,,-99.99,,2013-09-14 12:32:00,
2013-09-14 08:38:00,57.2,44.6,30.31,NE,35,6.9,-999.9,63,-99.99,,,-99.99,,2013-09-14 12:38:00,
2013-09-14 08:44:00,57.2,44.6,30.31,North,353,8.1,-999.9,63,-99.99,,,-99.99,,2013-09-14 12:44:00,
2013-09-14 08:50:00,57.2,44.6,30.31,North,353,8.1,-999.9,63,-99.99,,,-99.99,,2013-09-14 12:50:00,
2013-09-14 08:56:00,57.2,44.6,30.32,NNE,14,11.5,-999.9,63,-99.99,,,-99.99,,2013-09-14 12:56:00,
2013-09-14 09:02:00,57.2,44.6,30.32,North,7,9.2,-999.9,63,-99.99,,,-99.99,,2013-09-14 13:02:00,
2013-09-14 09:08:00,57.2,44.6,30.32,North,7,9.2,-999.9,63,-99.99,,,-99.99,,2013-09-14 13:08:00,
2013-09-14 09:14:00,59.0,46.4,30.32,NNE,13,9.2,-999.9,63,-99.99,,,-99.99,,2013-09-14 13:14:00,
2013-09-14 09:20:00,59.0,46.4,30.32,NNE,13,9.2,-999.9,63,-99.99,,,-99.99,,2013-09-14 13:20:00,
2013-09-14 09:26:00,59.0,46.4,30.32,North,350,5.8,-999.9,63,-99.99,,,-99.99,,2013-09-14 13:26:00,
2013-09-14 09:32:00,59.0,46.4,30.32,North,354,4.6,-999.9,63,-99.99,,,-99.99,,2013-09-14 13:32:00,
2013-09-14 09:38:00,59.0,46.4,30.32,North,354,4.6,-999.9,63,-99.99,,,-99.99,,2013-09-14 13:38:00,
2013-09-14 09:44:00,59.0,44.6,30.32,North,10,10.4,-999.9,59,-99.99,,,-99.99,,2013-09-14 13:44:00,
2013-09-14 09:50:00,59.0,44.6,30.32,North,10,10.4,-999.9,59,-99.99,,,-99.99,,2013-09-14 13:50:00,
2013-09-14 09:56:00,60.8,46.4,30.32,NE,49,1.2,-999.9,59,-99.99,,,-99.99,,2013-09-14 13:56:00,
2013-09-14 10:02:00,60.8,46.4,30.32,North,4,11.5,-999.9,59,-99.99,,,-99.99,,2013-09-14 14:02:00,
2013-09-14 10:08:00,60.8,46.4,30.32,North,4,11.5,-999.9,59,-99.99,,,-99.99,,2013-09-14 14:08:00,
2013-09-14 10:14:00,60.8,46.4,30.32,NE,34,6.9,-999.9,59,-99.99,,,-99.99,,2013-09-14 14:14:00,
2013-09-14 10:20:00,60.8,46.4,30.32,NE,34,6.9,-999.9,59,-99.99,,,-99.99,,2013-09-14 14:20:00,
2013-09-14 10:26:00,60.8,46.4,30.32,NNE,25,3.5,-999.9,59,-99.99,,,-99.99,,2013-09-14 14:26:00,
2013-09-14 10:32:00,60.8,44.6,30.32,NNE,21,10.4,-999.9,55,-99.99,,,-99.99,,2013-09-14 14:32:00,
2013-09-14 10:38:00,60.8,44.6,30.32,NNE,21,10.4,-999.9,55,-99.99,,,-99.99,,2013-09-14 14:38:00,
2013-09-14 10:44:00,60.8,44.6,30.32,NNE,17,10.4,-999.9,55,-99.99,,,-99.99,,2013-09-14 14:44:00,
2013-09-14 10:50:00,60.8,44.6,30.32,NNE,17,10.4,-999.9,55,-99.99,,,-99.99,,2013-09-14 14:50:00,
2013-09-14 10:56:00,62.6,46.4,30.32,NNE,29,4.6,-999.9,55,-99.99,,,-99.99,,2013-09-14 14:56:00,
2013-09-14 11:02:00,62.6,46.4,30.32,NNE,28,5.8,-999.9,55,-99.99,,,-99.99,,2013-09-14 15:02:00,
2013-09-14 11:08:00,62.6,46.4,30.32,NNE,28,5.8,-999.9,55,-99.99,,,-99.99,,2013-09-14 15:08:00,
2013-09-14 11:14:00,64.4,46.4,30.32,NNW,342,4.6,-999.9,52,-99.99,,,-99.99,,2013-09-14 15:14:00,
2013-09-14 11:20:00,64.4,46.4,30.32,NNW,342,4.6,-999.9,52,-99.99,,,-99.99,,2013-09-14 15:20:00,
2013-09-14 11:26:00,62.6,46.4,30.32,NNE,19,1.2,-999.9,55,-99.99,,,-99.99,,2013-09-14 15:26:00,
2013-09-14 11:42:00,62.6,46.4,30.33,NE,39,9.2,-999.9,55,-99.99,,,-99.99,,2013-09-14 15:42:00,
2013-09-14 11:48:00,62.6,46.4,30.33,NE,39,9.2,-999.9,55,-99.99,,,-99.99,,2013-09-14 15:48:00,
2013-09-14 11:54:00,62.6,46.4,30.33,NNE,12,6.9,-999.9,55,-99.99,,,-99.99,,2013-09-14 15:54:00,
2013-09-14 12:00:00,62.6,46.4,30.33,NNE,12,6.9,-999.9,55,-99.99,,,-99.99,,2013-09-14 16:00:00,
2013-09-14 12:06:00,62.6,46.4,30.34,NNE,17,3.5,-999.9,55,-99.99,,,-99.99,,2013-09-14 16:06:00,
2013-09-14 12:12:00,62.6,46.4,30.34,NNE,15,10.4,-999.9,55,-99.99,,,-99.99,,2013-09-14 16:12:00,
2013-09-14 12:18:00,62.6,46.4,30.34,NNE,15,10.4,-999.9,55,-99.99,,,-99.99,,2013-09-14 16:18:00,
2013-09-14 12:24:00,62.6,46.4,30.34,NNE,23,2.3,-999.9,55,-99.99,,,-99.99,,2013-09-14 16:24:00,
2013-09-14 12:30:00,62.6,46.4,30.34,NNE,23,2.3,-999.9,55,-99.99,,,-99.99,,2013-09-14 16:30:00,
2013-09-14 12:36:00,62.6,46.4,30.34,WNW,282,1.2,-999.9,55,-99.99,,,-99.99,,2013-09-14 16:36:00,
2013-09-14 12:42:00,62.6,46.4,30.34,North,349,9.2,-999.9,55,-99.99,,,-99.99,,2013-09-14 16:42:00,
2013-09-14 12:48:00,62.6,46.4,30.34,North,349,9.2,-999.9,55,-99.99,,,-99.99,,2013-09-14 16:48:00,
2013-09-14 12:54:00,62.6,46.4,30.34,NE,48,6.9,-999.9,55,-99.99,,,-99.99,,2013-09-14 16:54:00,
2013-09-14 13:00:00,62.6,46.4,30.34,NE,48,6.9,-999.9,55,-99.99,,,-99.99,,2013-09-14 17:00:00,
2013-09-14 13:06:00,62.6,46.4,30.34,NE,39,8.1,-999.9,55,-99.99,,,-99.99,,2013-09-14 17:06:00,
2013-09-14 13:12:00,64.4,46.4,30.34,East,82,2.3,-999.9,52,-99.99,,,-99.99,,2013-09-14 17:12:00,
2013-09-14 13:18:00,64.4,46.4,30.34,East,82,2.3,-999.9,52,-99.99,,,-99.99,,2013-09-14 17:18:00,
2013-09-14 13:24:00,64.4,46.4,30.34,West,260,1.2,-999.9,52,-99.99,,,-99.99,,2013-09-14 17:24:00,
2013-09-14 13:30:00,64.4,46.4,30.34,West,260,1.2,-999.9,52,-99.99,,,-99.99,,2013-09-14 17:30:00,
2013-09-14 13:36:00,66.2,46.4,30.34,NE,36,4.6,-999.9,49,-99.99,,,-99.99,,2013-09-14 17:36:00,
2013-09-14 13:42:00,64.4,46.4,30.34,NNE,28,5.8,-999.9,52,-99.99,,,-99.99,,2013-09-14 17:42:00,
2013-09-14 13:48:00,64.4,46.4,30.34,NNE,28,5.8,-999.9,52,-99.99,,,-99.99,,2013-09-14 17:48:00,
2013-09-14 13:54:00,64.4,48.2,30.34,NE,39,2.3,-999.9,56,-99.99,,,-99.99,,2013-09-14 17:54:00,
2013-09-14 14:00:00,64.4,48.2,30.34,NE,39,2.3,-999.9,56,-99.99,,,-99.99,,2013-09-14 18:00:00,
2013-09-14 14:06:00,64.4,46.4,30.34,NW,309,1.2,-999.9,52,-99.99,,,-99.99,,2013-09-14 18:06:00,
2013-09-14 14:12:00,64.4,46.4,30.34,NNE,16,3.5,-999.9,52,-99.99,,,-99.99,,2013-09-14 18:12:00,
2013-09-14 14:18:00,64.4,46.4,30.34,NNE,16,3.5,-999.9,52,-99.99,,,-99.99,,2013-09-14 18:18:00,
2013-09-14 14:24:00,64.4,46.4,30.34,ENE,70,3.5,-999.9,52,-99.99,,,-99.99,,2013-09-14 18:24:00,
2013-09-14 14:30:00,64.4,46.4,30.34,ENE,70,3.5,-999.9,52,-99.99,,,-99.99,,2013-09-14 18:30:00,
2013-09-14 14:36:00,66.2,46.4,30.34,NNE,33,6.9,-999.9,49,-99.99,,,-99.99,,2013-09-14 18:36:00,
2013-09-14 14:42:00,64.4,46.4,30.34,NNE,25,8.1,-999.9,52,-99.99,,,-99.99,,2013-09-14 18:42:00,
2013-09-14 14:48:00,64.4,46.4,30.34,NNE,25,8.1,-999.9,52,-99.99,,,-99.99,,2013-09-14 18:48:00,
2013-09-14 14:54:00,64.4,48.2,30.34,ENE,71,2.3,-999.9,56,-99.99,,,-99.99,,2013-09-14 18:54:00,
2013-09-14 15:00:00,64.4,48.2,30.34,ENE,71,2.3,-999.9,56,-99.99,,,-99.99,,2013-09-14 19:00:00,
2013-09-14 15:06:00,64.4,46.4,30.35,SE,129,2.3,-999.9,52,-99.99,,,-99.99,,2013-09-14 19:06:00,
2013-09-14 15:12:00,64.4,46.4,30.35,NNE,29,6.9,-999.9,52,-99.99,,,-99.99,,2013-09-14 19:12:00,
2013-09-14 15:18:00,64.4,46.4,30.35,NNE,29,6.9,-999.9,52,-99.99,,,-99.99,,2013-09-14 19:18:00,
2013-09-14 15:24:00,64.4,46.4,30.35,NNW,327,2.3,-999.9,52,-99.99,,,-99.99,,2013-09-14 19:24:00,
2013-09-14 15:30:00,64.4,46.4,30.35,NNW,327,2.3,-999.9,52,-99.99,,,-99.99,,2013-09-14 19:30:00,
2013-09-14 15:36:00,64.4,46.4,30.35,NNE,28,11.5,-999.9,52,-99.99,,,-99.99,,2013-09-14 19:36:00,
2013-09-14 15:42:00,64.4,46.4,30.35,NE,41,6.9,-999.9,52,-99.99,,,-99.99,,2013-09-14 19:42:00,
2013-09-14 15:48:00,64.4,46.4,30.35,NE,41,6.9,-999.9,52,-99.99,,,-99.99,,2013-09-14 19:48:00,
2013-09-14 15:54:00,64.4,44.6,30.35,North,8,6.9,-999.9,49,-99.99,,,-99.99,,2013-09-14 19:54:00,
2013-09-14 16:00:00,64.4,44.6,30.35,North,8,6.9,-999.9,49,-99.99,,,-99.99,,2013-09-14 20:00:00,
2013-09-14 16:06:00,64.4,46.4,30.35,NE,40,4.6,-999.9,52,-99.99,,,-99.99,,2013-09-14 20:06:00,
2013-09-14 16:12:00,64.4,46.4,30.36,NE,55,5.8,-999.9,52,-99.99,,,-99.99,,2013-09-14 20:12:00,
2013-09-14 16:18:00,64.4,46.4,30.36,NE,55,5.8,-999.9,52,-99.99,,,-99.99,,2013-09-14 20:18:00,
2013-09-14 16:24:00,64.4,46.4,30.36,North,6,4.6,-999.9,52,-99.99,,,-99.99,,2013-09-14 20:24:00,
2013-09-14 16:30:00,64.4,46.4,30.36,North,6,4.6,-999.9,52,-99.99,,,-99.99,,2013-09-14 20:30:00,
2013-09-14 16:36:00,62.6,44.6,30.37,ESE,107,0.0,-999.9,52,-99.99,,,-99.99,,2013-09-14 20:36:00,
2013-09-14 16:42:00,64.4,48.2,30.37,ENE,60,2.3,-999.9,56,-99.99,,,-99.99,,2013-09-14 20:42:00,
2013-09-14 16:48:00,64.4,48.2,30.37,ENE,60,2.3,-999.9,56,-99.99,,,-99.99,,2013-09-14 20:48:00,
2013-09-14 16:54:00,62.6,46.4,30.37,NE,42,5.8,-999.9,55,-99.99,,,-99.99,,2013-09-14 20:54:00,
2013-09-14 17:00:00,62.6,46.4,30.37,NE,42,5.8,-999.9,55,-99.99,,,-99.99,,2013-09-14 21:00:00,
2013-09-14 17:06:00,62.6,46.4,30.38,ENE,78,2.3,-999.9,55,-99.99,,,-99.99,,2013-09-14 21:06:00,
2013-09-14 17:12:00,62.6,46.4,30.38,NE,55,4.6,-999.9,55,-99.99,,,-99.99,,2013-09-14 21:12:00,
2013-09-14 17:18:00,62.6,46.4,30.38,NE,55,4.6,-999.9,55,-99.99,,,-99.99,,2013-09-14 21:18:00,
2013-09-14 17:24:00,62.6,46.4,30.39,ENE,58,3.5,-999.9,55,-99.99,,,-99.99,,2013-09-14 21:24:00,
2013-09-14 17:30:00,62.6,46.4,30.39,ENE,58,3.5,-999.9,55,-99.99,,,-99.99,,2013-09-14 21:30:00,
2013-09-14 17:36:00,60.8,44.6,30.39,NE,39,4.6,-999.9,55,-99.99,,,-99.99,,2013-09-14 21:36:00,
2013-09-14 17:42:00,60.8,46.4,30.40,NNE,22,2.3,-999.9,59,-99.99,,,-99.99,,2013-09-14 21:42:00,
2013-09-14 17:48:00,60.8,46.4,30.40,NNE,22,2.3,-999.9,59,-99.99,,,-99.99,,2013-09-14 21:48:00,
2013-09-14 17:54:00,60.8,46.4,30.40,NE,40,2.3,-999.9,59,-99.99,,,-99.99,,2013-09-14 21:54:00,
2013-09-14 18:00:00,60.8,46.4,30.40,NE,40,2.3,-999.9,59,-99.99,,,-99.99,,2013-09-14 22:00:00,
2013-09-14 18:06:00,60.8,46.4,30.40,WNW,290,0.0,-999.9,59,-99.99,,,-99.99,,2013-09-14 22:06:00,
2013-09-14 18:12:00,60.8,46.4,30.40,SSW,210,0.0,-999.9,59,-99.99,,,-99.99,,2013-09-14 22:12:00,
2013-09-14 18:18:00,60.8,46.4,30.40,SSW,210,0.0,-999.9,59,-99.99,,,-99.99,,2013-09-14 22:18:00,
2013-09-14 18:24:00,60.8,46.4,30.41,ENE,59,2.3,-999.9,59,-99.99,,,-99.99,,2013-09-14 22:24:00,
2013-09-14 18:30:00,60.8,46.4,30.41,ENE,59,2.3,-999.9,59,-99.99,,,-99.99,,2013-09-14 22:30:00,
2013-09-14 18:36:00,59.0,46.4,30.41,North,0,0.0,-999.9,63,-99.99,,,-99.99,,2013-09-14 22:36:00,
2013-09-14 18:42:00,59.0,46.4,30.41,North,0,0.0,-999.9,63,-99.99,,,-99.99,,2013-09-14 22:42:00,
2013-09-14 18:48:00,59.0,46.4,30.41,North,0,0.0,-999.9,63,-99.99,,,-99.99,,2013-09-14 22:48:00,
2013-09-14 18:54:00,59.0,46.4,30.42,North,0,0.0,-999.9,63,-99.99,,,-99.99,,2013-09-14 22:54:00,
2013-09-14 19:00:00,59.0,46.4,30.42,North,0,0.0,-999.9,63,-99.99,,,-99.99,,2013-09-14 23:00:00,
2013-09-14 19:06:00,59.0,46.4,30.42,East,82,1.2,-999.9,63,-99.99,,,-99.99,,2013-09-14 23:06:00,
2013-09-14 19:12:00,57.2,46.4,30.42,NE,42,0.0,-999.9,67,-99.99,,,-99.99,,2013-09-14 23:12:00,
2013-09-14 19:18:00,57.2,46.4,30.42,NE,42,0.0,-999.9,67,-99.99,,,-99.99,,2013-09-14 23:18:00,
2013-09-14 19:24:00,57.2,46.4,30.42,North,0,0.0,-999.9,67,-99.99,,,-99.99,,2013-09-14 23:24:00,
2013-09-14 19:30:00,57.2,46.4,30.42,North,0,0.0,-999.9,67,-99.99,,,-99.99,,2013-09-14 23:30:00,
2013-09-14 19:36:00,55.4,46.4,30.43,NNE,31,0.0,-999.9,72,-99.99,,,-99.99,,2013-09-14 23:36:00,
2013-09-14 19:42:00,55.4,46.4,30.43,North,0,0.0,-999.9,72,-99.99,,,-99.99,,2013-09-14 23:42:00,
2013-09-14 19:48:00,55.4,46.4,30.43,North,0,0.0,-999.9,72,-99.99,,,-99.99,,2013-09-14 23:48:00,
2013-09-14 19:54:00,55.4,46.4,30.44,NNE,26,0.0,-999.9,72,-99.99,,,-99.99,,2013-09-14 23:54:00,
2013-09-14 20:00:00,55.4,46.4,30.44,NNE,26,0.0,-999.9,72,-99.99,,,-99.99,,2013-09-15 00:00:00,
2013-09-14 20:06:00,55.4,46.4,30.44,North,5,0.0,-999.9,72,-99.99,,,-99.99,,2013-09-15 00:06:00,
2013-09-14 21:02:00,53.6,46.4,30.46,NE,46,3.5,-999.9,77,-99.99,,,-99.99,,2013-09-15 01:02:00,
2013-09-14 21:08:00,53.6,46.4,30.46,NE,46,3.5,-999.9,77,-99.99,,,-99.99,,2013-09-15 01:08:00,
2013-09-14 21:14:00,53.6,46.4,30.47,NE,34,3.5,-999.9,77,-99.99,,,-99.99,,2013-09-15 01:14:00,
2013-09-14 21:20:00,53.6,46.4,30.47,NE,34,3.5,-999.9,77,-99.99,,,-99.99,,2013-09-15 01:20:00,
2013-09-14 21:26:00,53.6,48.2,30.47,NE,44,3.5,-999.9,82,-99.99,,,-99.99,,2013-09-15 01:26:00,
2013-09-14 21:32:00,53.6,48.2,30.47,ENE,57,1.2,-999.9,82,-99.99,,,-99.99,,2013-09-15 01:32:00,
2013-09-14 21:38:00,53.6,48.2,30.47,ENE,57,1.2,-999.9,82,-99.99,,,-99.99,,2013-09-15 01:38:00,
2013-09-14 21:44:00,53.6,46.4,30.47,North,0,0.0,-999.9,77,-99.99,,,-99.99,,2013-09-15 01:44:00,
2013-09-14 21:50:00,53.6,46.4,30.47,North,0,0.0,-999.9,77,-99.99,,,-99.99,,2013-09-15 01:50:00,
2013-09-14 21:56:00,53.6,48.2,30.47,NNW,339,0.0,-999.9,82,-99.99,,,-99.99,,2013-09-15 01:56:00,
2013-09-14 22:02:00,53.6,48.2,30.47,North,4,1.2,-999.9,82,-99.99,,,-99.99,,2013-09-15 02:02:00,
2013-09-14 22:08:00,53.6,48.2,30.47,North,4,1.2,-999.9,82,-99.99,,,-99.99,,2013-09-15 02:08:00,
2013-09-14 22:14:00,51.8,46.4,30.47,North,0,0.0,-999.9,82,-99.99,,,-99.99,,2013-09-15 02:14:00,
2013-09-14 22:20:00,51.8,46.4,30.47,North,0,0.0,-999.9,82,-99.99,,,-99.99,,2013-09-15 02:20:00,
2013-09-14 22:26:00,51.8,46.4,30.47,North,0,0.0,-999.9,82,-99.99,,,-99.99,,2013-09-15 02:26:00,
2013-09-14 22:32:00,51.8,46.4,30.47,North,0,0.0,-999.9,82,-99.99,,,-99.99,,2013-09-15 02:32:00,
2013-09-14 22:38:00,51.8,46.4,30.47,North,0,0.0,-999.9,82,-99.99,,,-99.99,,2013-09-15 02:38:00,
2013-09-14 22:44:00,53.6,46.4,30.48,North,0,0.0,-999.9,77,-99.99,,,-99.99,,2013-09-15 02:44:00,
2013-09-14 22:50:00,53.6,46.4,30.48,North,0,0.0,-999.9,77,-99.99,,,-99.99,,2013-09-15 02:50:00,
2013-09-14 22:56:00,53.6,46.4,30.48,North,0,0.0,-999.9,77,-99.99,,,-99.99,,2013-09-15 02:56:00,
2013-09-14 23:02:00,53.6,46.4,30.49,North,0,0.0,-999.9,77,-99.99,,,-99.99,,2013-09-15 03:02:00,
2013-09-14 23:08:00,53.6,46.4,30.49,North,0,0.0,-999.9,77,-99.99,,,-99.99,,2013-09-15 03:08:00,
2013-09-14 23:14:00,53.6,46.4,30.48,North,0,0.0,-999.9,77,-99.99,,,-99.99,,2013-09-15 03:14:00,
2013-09-14 23:20:00,53.6,46.4,30.48,North,0,0.0,-999.9,77,-99.99,,,-99.99,,2013-09-15 03:20:00,
2013-09-14 23:26:00,53.6,46.4,30.49,NNW,331,0.0,-999.9,77,-99.99,,,-99.99,,2013-09-15 03:26:00,
2013-09-14 23:32:00,51.8,44.6,30.49,North,0,0.0,-999.9,76,-99.99,,,-99.99,,2013-09-15 03:32:00,
2013-09-14 23:38:00,51.8,44.6,30.49,North,0,0.0,-999.9,76,-99.99,,,-99.99,,2013-09-15 03:38:00,
2013-09-14 23:44:00,51.8,44.6,30.50,North,0,0.0,-999.9,76,-99.99,,,-99.99,,2013-09-15 03:44:00,
2013-09-14 23:50:00,51.8,44.6,30.50,North,0,0.0,-999.9,76,-99.99,,,-99.99,,2013-09-15 03:50:00,
2013-09-14 23:56:00,51.8,44.6,30.50,North,0,0.0,-999.9,76,-99.99,,,-99.99,,2013-09-15 03:56:00,